Location: Hradec Kralove
(50.2170°N, 15.8330°E)
Time: 01:54:39
(UTC+02:00)

AO-73 - Pass Details

Date: 17 September 2024
Orbit: 549 x 616 km, 97.7° (Epoch: 04 October)

Event Time Altitude Azimuth Distance (km) Brightness Sun altitude
Rises 04:39:42 0° 9° (N) 2,822 ? -18.6°
Reaches altitude 10° 04:41:56 10° 5° (N) 1,905 ? -18.3°
Maximum altitude 04:45:56 51° 289° (WNW) 721 ? -17.7°
Enters shadow 04:47:03 38° 241° (WSW) 869 ? -17.5°
